Time,TemperatureF,DewpointF,PressureIn,WindDirection,WindDirectionDegrees,WindSpeedMPH,WindSpeedGustMPH,Humidity,HourlyPrecipIn,Conditions,Clouds,dailyrainin,SoftwareType,DateUTC
2013-04-27 00:03:00,46.0,40.0,30.32,SSE,164,0.0,0.0,78,0.00,,,0.00,,2013-04-27 04:03:00,
2013-04-27 00:13:00,46.0,40.0,30.32,SSE,164,0.0,0.0,78,0.00,,,0.00,,2013-04-27 04:13:00,
2013-04-27 00:23:00,45.0,38.0,30.32,SSE,158,6.0,6.0,77,0.00,,,0.00,,2013-04-27 04:23:00,
2013-04-27 00:33:00,45.0,39.0,30.32,SSE,150,6.0,7.0,78,0.00,,,0.00,,2013-04-27 04:33:00,
2013-04-27 00:43:00,45.0,39.0,30.32,SSE,150,6.0,7.0,78,0.00,,,0.00,,2013-04-27 04:43:00,
2013-04-27 00:53:00,45.0,39.0,30.32,SSE,150,5.0,7.0,78,0.00,,,0.00,,2013-04-27 04:53:00,
2013-04-27 01:02:00,45.0,39.0,30.32,SSE,150,5.0,7.0,78,0.00,,,0.00,,2013-04-27 05:02:00,
2013-04-27 01:12:00,45.0,39.0,30.32,SSE,150,5.0,7.0,78,0.00,,,0.00,,2013-04-27 05:12:00,
2013-04-27 01:22:00,44.0,38.0,30.33,SSE,149,4.0,5.0,80,0.00,,,0.00,,2013-04-27 05:22:00,
2013-04-27 01:32:00,44.0,38.0,30.33,SSE,150,0.0,0.0,80,0.00,,,0.00,,2013-04-27 05:32:00,
2013-04-27 01:42:00,44.0,38.0,30.33,SSE,150,0.0,0.0,80,0.00,,,0.00,,2013-04-27 05:42:00,
2013-04-27 01:52:00,43.0,37.0,30.33,SSE,150,3.0,4.0,79,0.00,,,0.00,,2013-04-27 05:52:00,
2013-04-27 02:02:00,43.0,37.0,30.33,SSE,149,0.0,0.0,80,0.00,,,0.00,,2013-04-27 06:02:00,
2013-04-27 02:12:00,43.0,37.0,30.33,SSE,149,0.0,0.0,80,0.00,,,0.00,,2013-04-27 06:12:00,
2013-04-27 02:22:00,42.0,36.0,30.32,SSE,149,4.0,5.0,80,0.00,,,0.00,,2013-04-27 06:22:00,
2013-04-27 02:32:00,42.0,37.0,30.32,SSE,149,4.0,5.0,81,0.00,,,0.00,,2013-04-27 06:32:00,
2013-04-27 02:42:00,42.0,37.0,30.32,SSE,149,4.0,5.0,81,0.00,,,0.00,,2013-04-27 06:42:00,
2013-04-27 02:52:00,42.0,37.0,30.32,SSE,150,0.0,5.0,81,0.00,,,0.00,,2013-04-27 06:52:00,
2013-04-27 03:01:00,42.0,36.0,30.31,SSE,149,0.0,0.0,80,0.00,,,0.00,,2013-04-27 07:01:00,
2013-04-27 03:11:00,42.0,36.0,30.31,SSE,149,0.0,0.0,80,0.00,,,0.00,,2013-04-27 07:11:00,
2013-04-27 03:21:00,42.0,36.0,30.31,SSE,150,0.0,0.0,80,0.00,,,0.00,,2013-04-27 07:21:00,
2013-04-27 03:32:00,41.0,35.0,30.30,SSE,150,0.0,0.0,80,0.00,,,0.00,,2013-04-27 07:32:00,
2013-04-27 03:42:00,41.0,35.0,30.30,SSE,150,0.0,0.0,80,0.00,,,0.00,,2013-04-27 07:42:00,
2013-04-27 03:52:00,41.0,36.0,30.29,SSE,150,0.0,0.0,82,0.00,,,0.00,,2013-04-27 07:52:00,
2013-04-27 04:01:00,41.0,36.0,30.29,SSE,150,0.0,0.0,81,0.00,,,0.00,,2013-04-27 08:01:00,
2013-04-27 04:11:00,41.0,36.0,30.29,SSE,150,0.0,0.0,81,0.00,,,0.00,,2013-04-27 08:11:00,
2013-04-27 04:21:00,40.0,35.0,30.29,SSE,150,0.0,0.0,83,0.00,,,0.00,,2013-04-27 08:21:00,
2013-04-27 04:33:00,40.0,36.0,30.29,SSE,149,0.0,0.0,84,0.00,,,0.00,,2013-04-27 08:33:00,
2013-04-27 04:42:00,40.0,36.0,30.29,SSE,149,0.0,0.0,84,0.00,,,0.00,,2013-04-27 08:42:00,
2013-04-27 04:52:00,39.0,35.0,30.29,SSE,149,0.0,0.0,85,0.00,,,0.00,,2013-04-27 08:52:00,
2013-04-27 05:01:00,39.0,35.0,30.29,SSE,149,0.0,0.0,86,0.00,,,0.00,,2013-04-27 09:01:00,
2013-04-27 05:11:00,39.0,35.0,30.29,SSE,149,0.0,0.0,86,0.00,,,0.00,,2013-04-27 09:11:00,
2013-04-27 05:21:00,39.0,35.0,30.29,SSE,149,0.0,0.0,86,0.00,,,0.00,,2013-04-27 09:21:00,
2013-04-27 05:33:00,39.0,35.0,30.29,SSE,150,0.0,0.0,85,0.00,,,0.00,,2013-04-27 09:33:00,
2013-04-27 05:42:00,39.0,35.0,30.29,SSE,150,0.0,0.0,85,0.00,,,0.00,,2013-04-27 09:42:00,
2013-04-27 05:53:00,38.0,34.0,30.29,SSE,149,1.0,4.0,85,0.00,,,0.00,,2013-04-27 09:53:00,
2013-04-27 06:03:00,38.0,34.0,30.29,SSE,150,0.0,0.0,85,0.00,,,0.00,,2013-04-27 10:03:00,
2013-04-27 06:12:00,38.0,34.0,30.29,SSE,150,0.0,0.0,85,0.00,,,0.00,,2013-04-27 10:12:00,
2013-04-27 06:22:00,38.0,34.0,30.29,SSE,149,0.0,0.0,86,0.00,,,0.00,,2013-04-27 10:22:00,
2013-04-27 06:32:00,38.0,34.0,30.29,SSE,150,0.0,0.0,86,0.00,,,0.00,,2013-04-27 10:32:00,
2013-04-27 06:42:00,38.0,34.0,30.29,SSE,150,0.0,0.0,86,0.00,,,0.00,,2013-04-27 10:42:00,
2013-04-27 06:52:00,38.0,34.0,30.29,SSE,150,0.0,0.0,86,0.00,,,0.00,,2013-04-27 10:52:00,
2013-04-27 07:02:00,38.0,34.0,30.29,SSE,150,0.0,0.0,85,0.00,,,0.00,,2013-04-27 11:02:00,
2013-04-27 07:12:00,38.0,34.0,30.29,SSE,150,0.0,0.0,85,0.00,,,0.00,,2013-04-27 11:12:00,
2013-04-27 07:22:00,38.0,34.0,30.29,SSE,150,0.0,0.0,85,0.00,,,0.00,,2013-04-27 11:22:00,
2013-04-27 07:32:00,37.0,33.0,30.29,SSE,150,0.0,4.0,86,0.00,,,0.00,,2013-04-27 11:32:00,
2013-04-27 07:42:00,37.0,33.0,30.29,SSE,150,0.0,4.0,86,0.00,,,0.00,,2013-04-27 11:42:00,
2013-04-27 07:52:00,38.0,34.0,30.29,SSE,150,0.0,0.0,87,0.00,,,0.00,,2013-04-27 11:52:00,
2013-04-27 08:01:00,39.0,36.0,30.29,SSE,150,0.0,2.0,88,0.00,,,0.00,,2013-04-27 12:01:00,
2013-04-27 08:11:00,39.0,36.0,30.29,SSE,150,0.0,2.0,88,0.00,,,0.00,,2013-04-27 12:11:00,
2013-04-27 08:22:00,42.0,38.0,30.29,SE,140,1.0,4.0,84,0.00,,,0.00,,2013-04-27 12:22:00,
2013-04-27 08:32:00,45.0,38.0,30.29,SE,134,0.0,5.0,76,0.00,,,0.00,,2013-04-27 12:32:00,
2013-04-27 08:42:00,45.0,38.0,30.29,SE,134,0.0,5.0,76,0.00,,,0.00,,2013-04-27 12:42:00,
2013-04-27 08:52:00,47.0,39.0,30.29,SE,134,5.0,5.0,75,0.00,,,0.00,,2013-04-27 12:52:00,
2013-04-27 09:02:00,48.0,39.0,30.29,SE,134,3.0,6.0,70,0.00,,,0.00,,2013-04-27 13:02:00,
2013-04-27 09:12:00,48.0,39.0,30.29,SE,134,3.0,6.0,70,0.00,,,0.00,,2013-04-27 13:12:00,
2013-04-27 09:22:00,49.0,40.0,30.29,SE,134,5.0,6.0,70,0.00,,,0.00,,2013-04-27 13:22:00,
2013-04-27 09:32:00,50.0,41.0,30.29,SE,136,2.0,6.0,70,0.00,,,0.00,,2013-04-27 13:32:00,
2013-04-27 09:42:00,50.0,41.0,30.29,SE,136,2.0,6.0,70,0.00,,,0.00,,2013-04-27 13:42:00,
2013-04-27 09:52:00,50.0,41.0,30.29,SE,136,2.0,6.0,70,0.00,,,0.00,,2013-04-27 13:52:00,
2013-04-27 10:02:00,53.0,41.0,30.27,SE,125,7.0,10.0,64,0.00,,,0.00,,2013-04-27 14:02:00,
2013-04-27 10:11:00,53.0,41.0,30.27,SE,125,7.0,10.0,64,0.00,,,0.00,,2013-04-27 14:11:00,
2013-04-27 10:22:00,55.0,42.0,30.27,SE,146,7.0,11.0,62,0.00,,,0.00,,2013-04-27 14:22:00,
2013-04-27 10:32:00,56.0,41.0,30.27,SE,143,6.0,11.0,58,0.00,,,0.00,,2013-04-27 14:32:00,
2013-04-27 10:42:00,56.0,41.0,30.27,SE,143,6.0,11.0,58,0.00,,,0.00,,2013-04-27 14:42:00,
2013-04-27 10:52:00,57.0,43.0,30.26,SSE,148,8.0,10.0,59,0.00,,,0.00,,2013-04-27 14:52:00,
2013-04-27 11:01:00,58.0,43.0,30.25,SE,142,8.0,11.0,58,0.00,,,0.00,,2013-04-27 15:01:00,
2013-04-27 11:12:00,58.0,43.0,30.25,SE,142,8.0,11.0,58,0.00,,,0.00,,2013-04-27 15:12:00,
2013-04-27 11:22:00,60.0,44.0,30.24,SE,137,8.0,12.0,55,0.00,,,0.00,,2013-04-27 15:22:00,
2013-04-27 11:33:00,60.0,39.0,30.25,SE,138,12.0,15.0,46,0.00,,,0.00,,2013-04-27 15:33:00,
2013-04-27 11:43:00,60.0,39.0,30.25,SE,138,12.0,15.0,46,0.00,,,0.00,,2013-04-27 15:43:00,
2013-04-27 11:53:00,61.0,42.0,30.24,SSE,157,9.0,16.0,49,0.00,,,0.00,,2013-04-27 15:53:00,
2013-04-27 12:03:00,62.0,41.0,30.24,ESE,117,10.0,15.0,46,0.00,,,0.00,,2013-04-27 16:03:00,
2013-04-27 12:13:00,62.0,41.0,30.24,ESE,117,10.0,15.0,46,0.00,,,0.00,,2013-04-27 16:13:00,
2013-04-27 12:22:00,62.0,41.0,30.24,ESE,117,11.0,16.0,46,0.00,,,0.00,,2013-04-27 16:22:00,
2013-04-27 12:33:00,62.0,40.0,30.22,SE,142,12.0,16.0,45,0.00,,,0.00,,2013-04-27 16:33:00,
2013-04-27 12:42:00,62.0,40.0,30.22,SE,142,12.0,16.0,45,0.00,,,0.00,,2013-04-27 16:42:00,
2013-04-27 12:53:00,63.0,40.0,30.23,SE,134,14.0,19.0,43,0.00,,,0.00,,2013-04-27 16:53:00,
2013-04-27 13:02:00,63.0,42.0,30.23,SE,137,16.0,18.0,46,0.00,,,0.00,,2013-04-27 17:02:00,
2013-04-27 13:12:00,63.0,42.0,30.23,SE,137,16.0,18.0,46,0.00,,,0.00,,2013-04-27 17:12:00,
2013-04-27 13:22:00,64.0,42.0,30.23,SE,133,10.0,20.0,45,0.00,,,0.00,,2013-04-27 17:22:00,
2013-04-27 13:32:00,64.0,41.0,30.22,SSE,150,15.0,25.0,43,0.00,,,0.00,,2013-04-27 17:32:00,
2013-04-27 13:42:00,64.0,41.0,30.22,SSE,150,15.0,25.0,43,0.00,,,0.00,,2013-04-27 17:42:00,
2013-04-27 13:53:00,65.0,44.0,30.22,SSE,153,17.0,19.0,47,0.00,,,0.00,,2013-04-27 17:53:00,
2013-04-27 14:02:00,65.0,43.0,30.20,South,172,13.0,17.0,44,0.00,,,0.00,,2013-04-27 18:02:00,
2013-04-27 14:12:00,65.0,43.0,30.20,South,172,13.0,17.0,44,0.00,,,0.00,,2013-04-27 18:12:00,
2013-04-27 14:22:00,66.0,43.0,30.19,SE,137,14.0,20.0,43,0.00,,,0.00,,2013-04-27 18:22:00,
2013-04-27 14:32:00,66.0,45.0,30.19,SSE,156,17.0,27.0,46,0.00,,,0.00,,2013-04-27 18:32:00,
2013-04-27 14:42:00,66.0,45.0,30.19,SSE,156,17.0,27.0,46,0.00,,,0.00,,2013-04-27 18:42:00,
2013-04-27 14:52:00,66.0,44.0,30.18,SE,142,13.0,20.0,45,0.00,,,0.00,,2013-04-27 18:52:00,
2013-04-27 15:02:00,67.0,46.0,30.17,SSE,155,14.0,22.0,47,0.00,,,0.00,,2013-04-27 19:02:00,
2013-04-27 15:11:00,67.0,46.0,30.17,SSE,155,14.0,22.0,47,0.00,,,0.00,,2013-04-27 19:11:00,
2013-04-27 15:21:00,67.0,45.0,30.16,ESE,117,15.0,19.0,45,0.00,,,0.00,,2013-04-27 19:21:00,
2013-04-27 15:32:00,67.0,44.0,30.16,East,99,11.0,18.0,44,0.00,,,0.00,,2013-04-27 19:32:00,
2013-04-27 15:42:00,67.0,44.0,30.16,East,99,11.0,18.0,44,0.00,,,0.00,,2013-04-27 19:42:00,
2013-04-27 15:53:00,68.0,46.0,30.15,SSE,159,16.0,20.0,45,0.00,,,0.00,,2013-04-27 19:53:00,
2013-04-27 16:02:00,68.0,46.0,30.15,SSE,150,12.0,23.0,45,0.00,,,0.00,,2013-04-27 20:02:00,
2013-04-27 16:11:00,68.0,46.0,30.15,SSE,150,12.0,23.0,45,0.00,,,0.00,,2013-04-27 20:11:00,
2013-04-27 16:21:00,68.0,45.0,30.13,SE,134,14.0,21.0,43,0.00,,,0.00,,2013-04-27 20:21:00,
2013-04-27 16:32:00,68.0,45.0,30.13,South,175,17.0,21.0,44,0.00,,,0.00,,2013-04-27 20:32:00,
2013-04-27 16:42:00,68.0,45.0,30.13,South,175,17.0,21.0,44,0.00,,,0.00,,2013-04-27 20:42:00,
2013-04-27 16:52:00,68.0,46.0,30.13,SSE,161,12.0,19.0,45,0.00,,,0.00,,2013-04-27 20:52:00,
2013-04-27 17:02:00,67.0,47.0,30.11,SSE,163,11.0,27.0,48,0.00,,,0.00,,2013-04-27 21:02:00,
2013-04-27 17:12:00,67.0,47.0,30.11,SSE,163,11.0,27.0,48,0.00,,,0.00,,2013-04-27 21:12:00,
2013-04-27 17:21:00,67.0,46.0,30.11,SSE,168,12.0,28.0,47,0.00,,,0.00,,2013-04-27 21:21:00,
2013-04-27 17:33:00,67.0,47.0,30.10,SSE,164,14.0,22.0,48,0.00,,,0.00,,2013-04-27 21:33:00,
2013-04-27 17:43:00,67.0,47.0,30.10,SSE,164,14.0,22.0,48,0.00,,,0.00,,2013-04-27 21:43:00,
2013-04-27 17:53:00,66.0,45.0,30.10,SSE,151,13.0,20.0,47,0.00,,,0.00,,2013-04-27 21:53:00,
2013-04-27 18:03:00,66.0,46.0,30.09,SSE,150,14.0,19.0,48,0.00,,,0.00,,2013-04-27 22:03:00,
2013-04-27 18:13:00,66.0,46.0,30.09,SSE,150,14.0,19.0,48,0.00,,,0.00,,2013-04-27 22:13:00,
2013-04-27 18:23:00,66.0,46.0,30.09,SSE,150,15.0,18.0,49,0.00,,,0.00,,2013-04-27 22:23:00,
2013-04-27 18:32:00,65.0,45.0,30.09,SSE,159,15.0,20.0,49,0.00,,,0.00,,2013-04-27 22:32:00,
2013-04-27 18:42:00,65.0,45.0,30.09,SSE,159,15.0,20.0,49,0.00,,,0.00,,2013-04-27 22:42:00,
2013-04-27 18:53:00,65.0,46.0,30.09,SSE,164,11.0,22.0,50,0.00,,,0.00,,2013-04-27 22:53:00,
2013-04-27 19:02:00,64.0,45.0,30.09,SSE,155,12.0,16.0,51,0.00,,,0.00,,2013-04-27 23:02:00,
2013-04-27 19:12:00,64.0,45.0,30.09,SSE,155,12.0,16.0,51,0.00,,,0.00,,2013-04-27 23:12:00,
2013-04-27 19:22:00,64.0,47.0,30.08,South,184,13.0,17.0,54,0.00,,,0.00,,2013-04-27 23:22:00,
2013-04-27 19:32:00,63.0,48.0,30.08,South,183,13.0,16.0,57,0.00,,,0.00,,2013-04-27 23:32:00,
2013-04-27 19:42:00,63.0,48.0,30.08,South,183,13.0,16.0,57,0.00,,,0.00,,2013-04-27 23:42:00,
2013-04-27 19:52:00,62.0,47.0,30.08,SSW,194,14.0,17.0,57,0.00,,,0.00,,2013-04-27 23:52:00,
2013-04-27 20:01:00,61.0,47.0,30.08,SSW,192,10.0,15.0,60,0.00,,,0.00,,2013-04-28 00:01:00,
2013-04-27 20:12:00,61.0,47.0,30.08,SSW,192,10.0,15.0,60,0.00,,,0.00,,2013-04-28 00:12:00,
2013-04-27 20:21:00,61.0,48.0,30.07,South,186,9.0,11.0,62,0.00,,,0.00,,2013-04-28 00:21:00,
2013-04-27 20:32:00,60.0,48.0,30.07,South,186,7.0,10.0,65,0.00,,,0.00,,2013-04-28 00:32:00,
2013-04-27 20:43:00,60.0,48.0,30.07,South,186,7.0,10.0,65,0.00,,,0.00,,2013-04-28 00:43:00,
2013-04-27 20:52:00,60.0,47.0,30.07,SSE,167,7.0,13.0,63,0.00,,,0.00,,2013-04-28 00:52:00,
2013-04-27 21:02:00,60.0,49.0,30.07,South,175,5.0,10.0,68,0.00,,,0.00,,2013-04-28 01:02:00,
2013-04-27 21:11:00,60.0,49.0,30.07,South,175,5.0,10.0,68,0.00,,,0.00,,2013-04-28 01:11:00,
2013-04-27 21:22:00,59.0,50.0,30.06,South,188,5.0,6.0,71,0.00,,,0.00,,2013-04-28 01:22:00,
2013-04-27 21:32:00,59.0,50.0,30.06,South,189,2.0,5.0,73,0.00,,,0.00,,2013-04-28 01:32:00,
2013-04-27 21:42:00,59.0,50.0,30.06,South,189,2.0,5.0,73,0.00,,,0.00,,2013-04-28 01:42:00,
2013-04-27 21:52:00,58.0,50.0,30.06,South,188,1.0,4.0,75,0.00,,,0.00,,2013-04-28 01:52:00,
2013-04-27 22:02:00,58.0,50.0,30.06,SSE,155,6.0,7.0,75,0.00,,,0.00,,2013-04-28 02:02:00,
2013-04-27 22:12:00,58.0,50.0,30.06,SSE,155,6.0,7.0,75,0.00,,,0.00,,2013-04-28 02:12:00,
2013-04-27 22:22:00,57.0,50.0,30.06,SE,146,6.0,7.0,76,0.00,,,0.00,,2013-04-28 02:22:00,
2013-04-27 22:32:00,57.0,50.0,30.06,SSE,159,9.0,12.0,77,0.00,,,0.00,,2013-04-28 02:32:00,
2013-04-27 22:42:00,57.0,50.0,30.06,SSE,159,9.0,12.0,77,0.00,,,0.00,,2013-04-28 02:42:00,
2013-04-27 22:52:00,57.0,50.0,30.05,SSE,161,11.0,15.0,77,0.00,,,0.00,,2013-04-28 02:52:00,
2013-04-27 23:01:00,57.0,50.0,30.05,SSE,148,11.0,12.0,77,0.00,,,0.00,,2013-04-28 03:01:00,
2013-04-27 23:11:00,57.0,50.0,30.05,SSE,148,11.0,12.0,77,0.00,,,0.00,,2013-04-28 03:11:00,
2013-04-27 23:21:00,57.0,50.0,30.05,SSE,148,11.0,12.0,77,0.00,,,0.00,,2013-04-28 03:21:00,
2013-04-27 23:33:00,57.0,50.0,30.04,SE,141,5.0,10.0,78,0.00,,,0.00,,2013-04-28 03:33:00,
2013-04-27 23:43:00,57.0,50.0,30.04,SE,141,5.0,10.0,78,0.00,,,0.00,,2013-04-28 03:43:00,
2013-04-27 23:53:00,57.0,51.0,30.03,SE,129,5.0,11.0,79,0.00,,,0.00,,2013-04-28 03:53:00,